This is the latest recevied weather packets stored in our database for station/object 4S6DRJ-13. If no packets are shown the sender has not sent any weather packets the latest 10 day(s).
| Time | Temp. | Humidity | Pressure | Rain* | Wind** | Luminosity | Snow |
|---|---|---|---|---|---|---|---|
| 1788438947 | 28.89° C | 78% | 1008.2 hPa | 0 mm | 0.89 m/s, 243° | 15 W/m² | - |
| 1788438886 | 28.89° C | 78% | 1008.5 hPa | 0 mm | 0.45 m/s, 217° | 18 W/m² | - |
| 1788438825 | 28.89° C | 78% | 1008.3 hPa | 0 mm | 0.45 m/s, 217° | 20 W/m² | - |
| 1788438765 | 28.89° C | 78% | 1008.2 hPa | 0 mm | 0.89 m/s, 221° | 22 W/m² | - |
| 1788438703 | 28.89° C | 78% | 1008.5 hPa | 0 mm | 1.34 m/s, 185° | 23 W/m² | - |
| 1788438641 | 28.89° C | 78% | 1008.2 hPa | 0 mm | 0.89 m/s, 259° | 24 W/m² | - |
| 1788438580 | 28.89° C | 78% | 1008.1 hPa | 0 mm | 1.34 m/s, 317° | 27 W/m² | - |
| 1788438519 | 28.89° C | 78% | 1008.1 hPa | 0 mm | 1.79 m/s, 197° | 30 W/m² | - |
| 1788438458 | 28.89° C | 78% | 1008.2 hPa | 0 mm | 0 m/s | 34 W/m² | - |
| 1788438397 | 28.89° C | 78% | 1008.2 hPa | 0 mm | 1.34 m/s, 321° | 38 W/m² | - |
| 1788438336 | 28.89° C | 78% | 1008.2 hPa | 0 mm | 0.89 m/s, 297° | 42 W/m² | - |
| 1788438275 | 28.89° C | 78% | 1008.1 hPa | 0 mm | 0.45 m/s, 228° | 45 W/m² | - |
| 1788438214 | 28.89° C | 78% | 1008.2 hPa | 0 mm | 0.89 m/s, 200° | 46 W/m² | - |
| 1788438153 | 28.89° C | 78% | 1008.2 hPa | 0 mm | 1.79 m/s, 287° | 44 W/m² | - |
| 1788438092 | 28.89° C | 78% | 1008 hPa | 0 mm | 1.79 m/s, 251° | 47 W/m² | - |
| 1788438033 | 28.89° C | 78% | 1008.2 hPa | 0 mm | 2.24 m/s, 236° | 47 W/m² | - |
| 1788437971 | 28.89° C | 78% | 1008.1 hPa | 0 mm | 0.89 m/s, 268° | 48 W/m² | - |
| 1788437910 | 28.89° C | 78% | 1007.9 hPa | 0 mm | 1.79 m/s, 241° | 49 W/m² | - |
| 1788437849 | 28.89° C | 78% | 1008 hPa | 0 mm | 0.89 m/s, 273° | 51 W/m² | - |
| 1788437788 | 28.89° C | 78% | 1008.1 hPa | 0 mm | 0.89 m/s, 234° | 53 W/m² | - |
| 1788437727 | 28.89° C | 78% | 1008.1 hPa | 0 mm | 1.79 m/s, 239° | 53 W/m² | - |
| 1788437666 | 28.89° C | 78% | 1007.9 hPa | 0 mm | 1.34 m/s, 243° | 54 W/m² | - |
| 1788437605 | 28.89° C | 78% | 1008 hPa | 0 mm | 1.34 m/s, 234° | 55 W/m² | - |
| 1788437544 | 28.89° C | 78% | 1007.8 hPa | 0 mm | 3.13 m/s, 201° | 55 W/m² | - |
| 1788437483 | 28.89° C | 78% | 1007.8 hPa | 0 mm | 1.79 m/s, 299° | 56 W/m² | - |
* Rain latest hour (hover to see other rain measurements)
** Current wind speed in m/s (hover to see current wind gust speed)